Find Starlink 32294

NORAD ID: 61675 Int'l Des: 2024-193 Owner: SPXS Country: US Constellation: starlink operational
LEOCIRCULAR

Current View

Loading 3D Globe...

About Starlink 32294

Starlink 32294 (NORAD 61675) is a starlink constellation satellite (v2 mini) launched Oct 26, 2024 by SPXS of US. It operates in LEO, CIRCULAR orbit with a mass of 730.00 kg.

About Starlink 32294

Description loading...

Upcoming Passes

Passes for default location (London). Set your location on the main map for personalized predictions.

Altitude History

Loading altitude history...

Two-Line Element Set

1 61675U 24193Q 26168.22716409 .00001042 00000-0 45347-4 0 9992
2 61675 53.1619 348.1451 0001314 94.1066 266.0086 15.31703105 91771
Epoch: Jun 17, 2026 • Age: 17 hours

Current Status

Altitude 489.9 km
Velocity 7.62 km/s
Sub-Earth Point -52.66°S, 2.48°E
Launch Date Oct 26, 2024
Age 1.6 years
Type internet

Technical Details

Classification Payload
Mass 730.00 kg
Dry Mass 700.00 kg
Total Mass 730.00 kg
Length 0.30 m
Diameter 4.10 m
Span 29.00 m
Shape Box + pan
Manufacturer SPXS
Bus Type Starlink V2M
Phase Status In Orbit
Owner/State SPXS/US

Most Searched